| time (UTC) | temp F | wind direction | speed knots | gust knots | rain 1hr in | rain 24hr in | rain mn in | humidity % | barometer mb |
| 20260502163204 | 73 | 34 | 0.9 | 2.6 | 0.00 | 0.00 | 0.00 | 31 | 1015.4 |
| 20260502161205 | 74 | 34 | 0.9 | 2.6 | 0.00 | 0.00 | 0.00 | 28 | 1015.7 |
| 20260502151705 | 74 | 34 | 1.7 | 2.6 | 0.00 | 0.00 | 0.00 | 29 | 1016.4 |
| 20260502151204 | 74 | 34 | 0.0 | 2.6 | 0.00 | 0.00 | 0.00 | 30 | 1016.4 |
| 20260502130705 | 72 | 1 | 2.6 | 5.2 | 0.00 | 0.00 | 0.00 | 33 | 1018.0 |
| 20260502130205 | 72 | 13 | 1.7 | 2.6 | 0.00 | 0.00 | 0.00 | 33 | 1018.0 |
| 20260502123205 | 72 | 15 | 0.9 | 2.6 | 0.00 | 0.00 | 0.00 | 34 | 1018.0 |
| 20260502120705 | 71 | 21 | 0.9 | 2.6 | 0.00 | 0.00 | 0.00 | 36 | 1018.5 |
| 20260502111704 | 70 | 16 | 1.7 | 4.3 | 0.00 | 0.00 | 0.00 | 36 | 1019.0 |
| 20260502110705 | 70 | 24 | 1.7 | 2.6 | 0.00 | 0.00 | 0.00 | 32 | 1020.2 |
| 20260502110204 | 70 | 32 | 1.7 | 4.3 | 0.00 | 0.00 | 0.00 | 35 | 1020.2 |
| 20260502104705 | 70 | 355 | 1.7 | 2.6 | 0.00 | 0.00 | 0.00 | 31 | 1020.2 |
| 20260502103704 | 69 | 355 | 0.0 | 2.6 | 0.00 | 0.00 | 0.00 | 32 | 1020.2 |
| 20260502100704 | 69 | 28 | 1.7 | 2.6 | 0.00 | 0.00 | 0.00 | 33 | 1020.2 |
| 20260502091204 | 67 | 22 | 0.9 | 2.6 | 0.00 | 0.00 | 0.00 | 37 | 1020.5 |
| 20260502090205 | 66 | 18 | 0.9 | 2.6 | 0.00 | 0.00 | 0.00 | 36 | 1020.5 |
| 20260502070205 | 60 | 300 | 0.0 | 1.7 | 0.00 | 0.00 | 0.00 | 51 | 1020.6 |
| 20260502064204 | 57 | 300 | 0.0 | 0.9 | 0.00 | 0.00 | 0.00 | 52 | 1020.6 |
| 20260502063205 | 56 | 300 | 0.0 | 1.7 | 0.00 | 0.00 | 0.00 | 54 | 1020.6 |
| 20260502060704 | 53 | 300 | 0.9 | 2.6 | 0.00 | 0.00 | 0.00 | 56 | 1020.8 |
| 20260502053205 | 50 | 300 | 0.9 | 2.6 | 0.00 | 0.00 | 0.00 | 57 | 1020.8 |
| 20260502051204 | 49 | 300 | 0.0 | 2.6 | 0.00 | 0.00 | 0.00 | 53 | 1020.6 |
| 20260502050205 | 49 | 300 | 2.6 | 5.2 | 0.00 | 0.00 | 0.00 | 53 | 1020.6 |
| 20260502043705 | 48 | 300 | 1.7 | 2.6 | 0.00 | 0.00 | 0.00 | 53 | 1020.6 |
| 20260502041704 | 47 | 300 | 0.9 | 2.6 | 0.00 | 0.00 | 0.00 | 54 | 1020.6 |
| 20260502034704 | 47 | 300 | 1.7 | 5.2 | 0.00 | 0.00 | 0.00 | 54 | 1020.6 |
| 20260502033704 | 47 | 300 | 0.0 | 1.7 | 0.00 | 0.00 | 0.00 | 55 | 1020.5 |
| 20260502033204 | 46 | 300 | 0.0 | 2.6 | 0.00 | 0.00 | 0.00 | 56 | 1020.7 |
| 20260502031704 | 46 | 300 | 0.9 | 2.6 | 0.00 | 0.00 | 0.00 | 57 | 1020.7 |
| 20260502031204 | 46 | 300 | 0.9 | 2.6 | 0.00 | 0.00 | 0.00 | 57 | 1020.7 |
| 20260502030204 | 47 | 300 | 0.0 | 1.7 | 0.00 | 0.00 | 0.00 | 56 | 1020.7 |
| 20260502024705 | 47 | 300 | 0.0 | 0.9 | 0.00 | 0.00 | 0.00 | 56 | 1020.7 |
| 20260502023704 | 47 | 300 | 0.9 | 1.7 | 0.00 | 0.00 | 0.00 | 56 | 1020.7 |
| 20260502021204 | 47 | 300 | 0.9 | 2.6 | 0.00 | 0.00 | 0.00 | 54 | 1020.7 |
| 20260502014204 | 47 | 300 | 0.0 | 2.6 | 0.00 | 0.00 | 0.00 | 56 | 1020.7 |
| 20260502013204 | 47 | 300 | 0.9 | 2.6 | 0.00 | 0.00 | 0.00 | 58 | 1020.7 |
| 20260502011204 | 47 | 300 | 0.0 | 1.7 | 0.00 | 0.00 | 0.00 | 57 | 1020.7 |
| 20260502004704 | 48 | 300 | 0.9 | 2.6 | 0.00 | 0.00 | 0.00 | 53 | 1020.7 |
| 20260502003204 | 49 | 300 | 1.7 | 5.2 | 0.00 | 0.00 | 0.00 | 53 | 1021.0 |
| 20260501234704 | 49 | 300 | 0.0 | 1.7 | 0.00 | 0.00 | 0.00 | 54 | 1021.1 |
| 20260501231705 | 50 | 300 | 0.9 | 2.6 | 0.00 | 0.00 | 0.00 | 52 | 1021.1 |
| 20260501224704 | 50 | 306 | 0.9 | 2.6 | 0.00 | 0.00 | 0.00 | 51 | 1021.1 |
| 20260501223204 | 50 | 40 | 1.7 | 2.6 | 0.00 | 0.00 | 0.00 | 52 | 1021.1 |
| 20260501220705 | 51 | 40 | 0.0 | 1.7 | 0.00 | 0.00 | 0.00 | 49 | 1021.1 |
| 20260501214703 | 51 | 40 | 0.0 | 1.7 | 0.00 | 0.00 | 0.00 | 50 | 1021.0 |
| 20260501213204 | 51 | 40 | 0.9 | 4.3 | 0.00 | 0.00 | 0.00 | 49 | 1021.0 |
| 20260501211704 | 51 | 42 | 0.9 | 2.6 | 0.00 | 0.00 | 0.00 | 51 | 1020.8 |
| 20260501210704 | 51 | 42 | 0.9 | 2.6 | 0.00 | 0.00 | 0.00 | 51 | 1020.6 |
| 20260501210204 | 51 | 42 | 0.9 | 2.6 | 0.00 | 0.00 | 0.00 | 51 | 1020.6 |
| 20260501201204 | 52 | 42 | 0.0 | 1.7 | 0.00 | 0.00 | 0.00 | 47 | 1020.5 |
| 20260501194703 | 52 | 42 | 0.0 | 0.0 | 0.00 | 0.00 | 0.00 | 47 | 1020.4 |
| 20260501194203 | 52 | 42 | 0.0 | 0.9 | 0.00 | 0.00 | 0.00 | 47 | 1020.2 |
| 20260501193704 | 52 | 42 | 0.0 | 1.7 | 0.00 | 0.00 | 0.00 | 46 | 1020.2 |
| 20260501193204 | 52 | 42 | 0.0 | 0.0 | 0.00 | 0.00 | 0.00 | 45 | 1020.2 |
| 20260501191204 | 53 | 42 | 0.0 | 1.7 | 0.00 | 0.00 | 0.00 | 44 | 1019.7 |
| 20260501190204 | 54 | 42 | 0.0 | 0.0 | 0.00 | 0.00 | 0.00 | 43 | 1019.7 |
| 20260501184703 | 56 | 42 | 0.0 | 0.0 | 0.00 | 0.00 | 0.00 | 41 | 1019.7 |
| 20260501184204 | 57 | 42 | 0.0 | 0.0 | 0.00 | 0.00 | 0.00 | 40 | 1019.7 |
| 20260501183704 | 57 | 42 | 0.0 | 0.0 | 0.00 | 0.00 | 0.00 | 38 | 1019.7 |
| 20260501183203 | 58 | 42 | 0.0 | 0.0 | 0.00 | 0.00 | 0.00 | 37 | 1019.7 |
| 20260501181704 | 61 | 42 | 0.0 | 0.9 | 0.00 | 0.00 | 0.00 | 37 | 1019.5 |
| 20260501181203 | 63 | 42 | 0.0 | 0.9 | 0.00 | 0.00 | 0.00 | 36 | 1019.5 |
| 20260501180204 | 64 | 42 | 0.0 | 0.0 | 0.00 | 0.00 | 0.00 | 31 | 1019.5 |
| 20260501171704 | 65 | 42 | 0.9 | 1.7 | 0.00 | 0.00 | 0.00 | 26 | 1019.5 |
| 20260501171204 | 65 | 42 | 0.0 | 1.7 | 0.00 | 0.00 | 0.00 | 27 | 1019.5 |
| 20260501170204 | 65 | 42 | 0.0 | 2.6 | 0.00 | 0.00 | 0.00 | 27 | 1019.5 |
| 20260501164704 | 66 | 42 | 0.0 | 1.7 | 0.00 | 0.00 | 0.00 | 26 | 1019.6 |